Flag for Brazil Weather past 2 weeks in Santarém, Para, Brazil

Now
88 °F

Scattered clouds.


Feels Like: 96 °F
Forecast: 78 / 90 °F
Wind: 16 mph from East

Location: Santarem-Aeroporto

Current Time: Aug 27, 2014 at 2:47:42 PM

Latest Report: Aug 27, 2014 at 2:00 PM


Visibility: N/A

Pressure: 29.86 "Hg

Humidity: 62%

Dew point: 73 °F

Location of SantarémLocation

Historic Weather in Santarém — Graph

°F

Santarém temperature yesterday

Maximum temperature yesterday: 90 °F (at 4:00 PM)
Minimum temperature yesterday: 75 °F (at 12:00 AM)
Average temperature yesterday: 82 °F

Past Weeks' High & Low Weather Summary

 TemperatureHumidityPressure
High91 °F (Aug 19, 12:00 PM)100% (Aug 12, 11:00 PM)30.01 "Hg (Aug 12, 11:00 PM)
Low72 °F (Aug 18, 5:00 AM)52% (Aug 19, 12:00 PM)29.77 "Hg (Aug 24, 4:00 PM)
Average81 °F81%29.88 "Hg
* Reported Aug 12 2:00 PM — Aug 27 2:00 PM, Santarém, Weather by CustomWeather, © 2014

Note: Actual official high and low records may vary slightly from our data, if they occured in-between our weather recording intervals... More about our weather records

Advertising

Santarém weather history for previous 24 hours

 ConditionsComfort  
Time TempWeatherWind HumidityBarometerVisibility
2:00 PM
Aug 27
88 °FScattered clouds.16 mph62%29.86 "HgN/A
1:00 PM90 °FScattered clouds.16 mph63%29.89 "HgN/A
12:00 PM88 °FScattered clouds.21 mph66%29.92 "HgN/A
11:00 AM86 °FScattered clouds.20 mph66%29.92 "HgN/A
10:00 AM84 °FPartly sunny.18 mph70%29.92 "HgN/A
9:00 AM82 °FScattered clouds.17 mph74%29.92 "HgN/A
8:00 AM81 °FPassing clouds.12 mph79%29.89 "HgN/A
7:00 AM79 °FScattered clouds.15 mph84%29.86 "HgN/A
6:00 AM81 °FPassing clouds.12 mph79%29.86 "HgN/A
5:00 AM79 °FPassing clouds.10 mph84%29.83 "HgN/A
4:00 AM81 °FPassing clouds.14 mph79%29.83 "HgN/A
3:00 AM81 °FPassing clouds.10 mph89%29.83 "HgN/A
2:00 AM75 °FClear.No wind94%29.86 "Hg10 mi
1:00 AM77 °FClear.No wind94%29.86 "Hg10 mi
12:00 AM81 °FClear.3 mph84%29.86 "Hg10 mi
11:00 PM
Aug 26
82 °FClear.6 mph79%29.86 "Hg10 mi
10:00 PM82 °FClear.7 mph79%29.83 "Hg10 mi
9:00 PM82 °FClear.7 mph79%29.83 "Hg10 mi
8:00 PM82 °FPassing clouds.10 mph79%29.80 "HgN/A
7:00 PM84 °FPassing clouds.10 mph74%29.80 "HgN/A
6:00 PM86 °FPassing clouds.12 mph70%29.80 "HgN/A
5:00 PM86 °FPassing clouds.15 mph66%29.80 "HgN/A
4:00 PM90 °FPassing clouds.16 mph63%29.80 "HgN/A
3:00 PM88 °FPassing clouds.15 mph66%29.83 "HgN/A
2:00 PM88 °FPassing clouds.18 mph66%29.86 "HgN/A
Weather by CustomWeather, © 2014

See weather overviewHow to use our weather pages